{"data":{"norad_id":56796,"intl_designator":"2023-078AF","name":"STARLINK-6049","alt_names":[],"object_type":"PAYLOAD","status":"ACTIVE","operator":null,"country":"US","launch_date":"2023-05-31","launch_site_code":"AFWTR","launch_vehicle":null,"mission":null,"orbit_class":"UNKNOWN","rcs_meters":null,"size_class":null,"mass_kg":null,"dimensions":null,"purposes":["comms"],"wikipedia_slug":null,"has_3d_model":false,"image_url":null,"decayed_at":null,"tle_current":{"epoch":"2026-05-25T02:27:40.550688Z","epoch_age_seconds":66506,"freshness":"FRESH","line1":"1 56796U 23078AF  26145.10255267  .00000373  00000+0  39064-4 0  9997","line2":"2 56796  69.9984 151.8923 0003641 266.1881  93.8861 14.98331914164127","mean_motion":14.98331914,"eccentricity":0.0003641,"inclination_deg":69.9984,"raan_deg":151.8923,"arg_perigee_deg":266.1881,"mean_anomaly_deg":93.8861,"bstar":3.9064e-5,"rev_number":16412,"period_min":96.106876356636,"perigee_km":569.51940898708,"apogee_km":574.58053514013,"semimajor_km":6950.1869720636,"source":"CELESTRAK","updated_at":"2026-05-25T13:38:18.157436Z"}}}